CAPE
0 0 0 0 0 0 0 0 0 0 0 0 0 0 0 0 0 0 0 0 0 0 0 0 0 0 0 0 0 0 0 0 0 0 0 0 0 0 0 0 0 0 0 0
0 0 0 0 0 0 0 0 0 0 0 0 0 0 0 0 0 0 0 0 0 0 0 0 0 0 0 0 0 0 0 0 0 0 0 0 0 0 0 0 0 0 0 0
0 0 0 0 0 0 0 0 0 0 0 0 0 0 0 0 0 0 0 0 0 0 0 0 0 0 0 0 0 0 0 0 0 0 0 0 0 0 0 0 0 0 0 0
0 0 0 0 0 0 0 0 0 0 0 0 0 0 0 0 0 0 0 0 0 0 0 0 0 0 0 0 0 0 0 0 0 0 0 0 0 0 0 0 0 1 0 0
0 0 0 0 0 0 0 0 0 0 0 0 0 0 0 0 0 0 0 0 0 0 0 0 0 0 0 0 0 0 0 0 0 0 0 0 0 0 0 0 1 0 0 0
0 0 0 0 0 0 0 0 0 0 0 0 0 0 0 0 0 0 0 0 0 0 0 0 0 0 0 0 0 0 0 0 0 0 0 0 0 0 0 0 0 0 0 0
0 0 0 0 0 0 0 0 0 0 0 0 0 0 0 0 0 0 0 0 0 0 0 0 0 0 0 0 0 0 0 0 0 0 0 0 0 0 0 0 0 0 0 0
0 0 0 0 0 0 0 0 0 0 0 0 0 0 0 0 0 0 0 0 0 0 0 0 0 0 0 0 0 0 0 0 0 0 0 0 0 0 0 0 0 0 0 0
0 0 0 0 0 0 0 0 0 0 0 0 0 0 0 0 0 0 0 0 0 0 0 0 0 0 0 0 0 0 0 0 0 0 0 0 0 0 0 0 0 0 0 0
0 0 0 0 0 0 0 0 0 0 0 0 0 0 0 0 0 0 0 0 0 0 0 0 0 0 0 0 0 0 0 0 0 0 0 0 0 0 0 0 0 0 0 0
0 0 0 0 0 0 0 0 0 0 0 0 0 0 0 0 0 0 0 0 0 0 0 0 0 0 0 0 0 0 0 0 0 0 0 0 0 0 0 0 0 0 0 0
0 0 0 0 0 0 0 0 0 0 0 0 0 0 0 0 0 0 0 0 0 0 0 0 0 0 0 0 0 0 0 0 0 0 0 0 0 0 0 0 0 0 0 0
0 0 0 0 0 0 0 0 1 3 0 0 1 0 0 0 0 0 0 0 0 0 0 0 0 0 0 0 0 0 0 0 0 0 0 0 0 0 0 0 0 0 0 0
0 0 0 2 1 0 0 0 0 0 0 0 0 0 0 0 0 0 0 0 0 0 0 0 0 0 0 0 0 0 0 0 0 0 0 0 0 0 0 0 0 0 0 0
0 0 0 0 0 0 0 0 0 0 0 0 0 0 0 0 0 0 0 0 0 0 0 0 0 0 0 0 0 0 0 0 0 0 0 0 0 0 0 0 0 0 0 0
0 0 0 0 0 0 0 0 0 0 0 0 0 0 0 0 0 0 0 0 0 0 0 0 0 0 0 0 0 0 0 0 0 0 0 0 0 0 0 0 0 0 0 0
0 0 0 0 0 0 0 0 0 0 0 0 0 0 0 0 0 0 0 0 0 0 0 0 0 0 0 0 0 0 0 0 0 0 0 0 0 0 0 0 0 0 0 0
0 0 0 0 0 0 0 0 0 0 0 0 0 0 0 0 0 0 0 0 0 0 0 0 0 0 0 0 0 0 0 0 0 0 0 0 0 0 0 0 0 0 0 0
0 0 0 0 0 0 0 0 0 0 0 0 0 0 0 0 0 0 0 0 0 0 0 0 0 0 0 0 0 0 0 0 0 0 0 0 0 0 0 0 0 0 0 0
0 0 0 0 0 0 0 0 0 0 0 0 1 1 2 0 0 0 0 0 0 0 0 0 0 0 0 0 0 0 0 0 0 0 0 0 0 0 0 0 0 0 0 0
0 0 0 0 2 0 0 0 0 0 0 0 0 0 0 0 0 0 0 0 0 0 0 0 0 0 0 0 0 0 0 0 0 0 0 0 0 0 0 0 0 0 0 0
0 0 0 0 0 0 0 0 0 0 0 0 0 0 0 0 0 0 0 0 0 0 0 0 0 0 0 0 0 0 0 0 0 0 0 0 0 0 0 0 0 0 0 1
0 0 0 0 0 0 0 0 0 0 0 0 0 0 0 0 0 0 0 0 0 0 0 0 0 0 0 0 0 0 0 0 0 0 0 0 0 1 1 2 2 1 0 0
0 0 0 0 0 0 0 0 0 0 0 0 0 0 0 0 0 0 0 0 0 0 0 0 0 0 0 0 0 0 0 0 0 0 0 0 1 1 1 0 0 0 0 0
0 0 0 0 0 0 0 0 0 0 0 0 0 0 0 0 0 0 0 0 0 0 0 0 0 0 0 0 0 0 0 0 0 0 0 0 0 0 0 0 0 0 0 0
0 0 0 0 0 0 0 0 0 0 0 0 0 0 0 0 0 0 0 0 0 0 0 0 0 0 0 0 0 0 0 0 0 0 0 0 0 0 0 1 1 1 0 0
CIN
-0 -0 -0 -0 -0 -0 -0 -0 -0 -0 -0 -0 -0 -0 -0 -0 -0 -0 -0 -0 -0 -0 -0 -0 -0 -0 -0 -0 -0 -0 -0 -0 -0 -0 -0 -0 -0 -0 -0 -0 -0 -0 -0 -0
-0 -0 -0 -0 -0 -0 -0 -0 -0 -0 -0 -0 -0 -0 -0 -0 -0 -0 -0 -0 -0 -0 -0 -0 -0 -0 -0 -0 -0 -0 -0 -0 -0 -0 -0 -0 -0 -0 -0 -0 -0 -0 -0 -0
-0 -0 -0 -0 -0 -0 -0 -0 -0 -0 -0 -0 -0 -0 -0 -0 -0 -0 -0 -0 -0 -0 -0 -0 -0 -0 -0 -0 -0 -0 -0 -0 -0 -0 -0 -0 -0 -0 -0 -0 -0 -0 -0 -0
-0 -0 -0 -0 -0 -0 -0 -0 -0 -0 -0 -0 -0 -0 -0 -0 -0 -0 -0 -0 -0 -0 -0 -0 -0 -0 -0 -0 -0 -0 -0 -0 -0 -0 -0 -0 -0 -0 -0 -0 -0 -0 -0 -0
-0 -0 -0 -0 -0 -0 -0 -0 -0 -0 -0 -0 -0 -0 -0 -0 -0 -0 -0 -0 -0 -0 -0 -0 -0 -0 -0 -0 -0 -0 -0 -0 -0 -0 -0 -0 -0 -0 -0 -0 -0 -0 -0 -0
-0 -0 -0 -0 -0 -0 -0 -0 -0 -0 -0 -0 -0 -0 -0 -0 -0 -0 -0 -0 -0 -0 -0 -0 -0 -0 -0 -0 -0 -0 -0 -0 -0 -0 -0 -0 -0 -0 -0 -0 -0 -0 -0 -0
-0 -0 -0 -0 -0 -0 -0 -0 -0 -0 -0 -0 -0 -0 -0 -0 -0 -0 -0 -0 -0 -0 -0 -0 -0 -0 -0 -0 -0 -0 -0 -0 -0 -0 -0 -0 -0 -0 -0 -0 -0 -0 -0 -0
-0 -0 -0 -0 -0 -0 -0 -0 -0 -0 -0 -0 -0 -0 -0 -0 -0 -0 -0 -0 -0 -0 -0 -0 -0 -0 -0 -0 -0 -0 -0 -0 -0 -0 -0 -0 -0 -0 -0 -0 -0 -0 -0 -0
-0 -0 -0 -0 -0 -0 -0 -0 -0 -0 -0 -0 -0 -0 -0 -0 -0 -0 -0 -0 -0 -0 -0 -0 -0 -0 -0 -0 -0 -0 -0 -0 -0 -0 -0 -0 -0 -0 -0 -0 -0 -0 -0 -0
-0 -0 -0 -0 -0 -0 -0 -0 -0 -0 -0 -0 -0 -0 -0 -0 -0 -0 -0 -0 -0 -0 -0 -0 -0 -0 -0 -0 -0 -0 -0 -0 -0 -0 -0 -0 -0 -0 -0 -0 -0 -0 -0 -0
-0 -0 -0 -0 -0 -0 -0 -0 -0 -0 -0 -0 -0 -0 -0 -0 -0 -0 -0 -0 -0 -0 -0 -0 -0 -0 -0 -0 -0 -0 -0 -0 -0 -0 -0 -0 -0 -0 -0 -0 -0 -0 -0 -0
-0 -0 -0 -0 -0 -0 -0 -0 -0 -0 -0 -2 -0 -0 -0 -0 -0 -0 -0 -0 -0 -0 -0 -0 -0 -0 -0 -0 -0 -0 -0 -0 -0 -0 -0 -0 -0 -0 -0 -0 -0 -0 -0 -0
-0 -0 -0 -0 -0 -0 -0 -0 -0 -0 -0 -0 -3 -0 -0 -0 -0 -0 -0 -0 -0 -0 -0 -0 -0 -0 -0 -0 -0 -0 -0 -0 -0 -0 -0 -0 -0 -0 -0 -0 -0 -0 -0 -0
-0 -0 -0 -1 -3 -0 -0 -0 -0 -0 -0 -0 -0 -2 -0 -0 -0 -0 -0 -0 -0 -0 -0 -0 -0 -0 -0 -0 -0 -0 -0 -0 -0 -0 -0 -0 -0 -0 -0 -0 -0 -0 -0 -0
-0 -0 -0 -0 -0 -0 -0 -0 -0 -0 -0 -0 -0 -0 -0 -0 -0 -0 -0 -0 -0 -0 -0 -0 -0 -0 -0 -0 -0 -0 -0 -0 -0 -0 -0 -0 -0 -0 -0 -0 -0 -0 -0 -0
-0 -0 -0 -0 -0 -0 -0 -0 -0 -0 -0 -0 -0 -0 -0 -0 -0 -0 -0 -0 -0 -0 -0 -0 -0 -0 -0 -0 -0 -0 -0 -0 -0 -0 -0 -0 -0 -0 -0 -0 -0 -0 -0 -0
-0 -0 -0 -0 -0 -0 -0 -0 -0 -0 -0 -0 -0 -0 -0 -0 -0 -0 -0 -0 -0 -0 -0 -0 -0 -0 -0 -0 -0 -0 -0 -0 -0 -0 -0 -0 -0 -0 -0 -0 -0 -0 -0 -0
-0 -0 -0 -0 -0 -0 -0 -0 -0 -0 -0 -0 -0 -0 -0 -0 -0 -0 -0 -0 -0 -0 -0 -0 -0 -0 -0 -0 -0 -0 -0 -0 -0 -0 -0 -0 -0 -0 -0 -0 -0 -0 -0 -0
-0 -0 -0 -0 -0 -0 -0 -0 -0 -0 -0 -0 -0 -0 -0 -0 -0 -0 -0 -0 -0 -0 -0 -0 -0 -0 -0 -0 -0 -0 -0 -0 -0 -0 -0 -0 -0 -0 -0 -0 -0 -0 -0 -0
-0 -0 -0 -0 -0 -0 -0 -0 -0 -0 -0 -0 -0 -0 -0 -0 -0 -0 -0 -0 -0 -0 -0 -0 -0 -0 -0 -0 -0 -0 -0 -0 -0 -0 -0 -0 -0 -0 -0 -0 -0 -0 -0 -0
-0 -0 -0 -0 -1 -0 -0 -0 -0 -0 -0 -0 -0 -0 -0 -0 -0 -0 -0 -0 -0 -0 -0 -0 -0 -0 -0 -0 -0 -0 -0 -0 -0 -0 -0 -0 -0 -0 -0 -0 -0 -0 -0 -0
-0 -0 -0 -0 -0 -1 -0 -0 -0 -0 -0 -0 -0 -0 -0 -0 -0 -0 -0 -0 -0 -0 -0 -0 -0 -0 -0 -0 -0 -0 -0 -0 -0 -0 -0 -0 -0 -0 -0 -0 -0 -0 -0 -0
-0 -0 -0 -0 -0 -0 -0 -0 -0 -0 -0 -0 -0 -0 -0 -0 -0 -0 -0 -0 -0 -0 -0 -0 -0 -0 -0 -0 -0 -0 -0 -0 -0 -0 -0 -0 -0 -0 -0 -0 -0 -0 -0 -0
-0 -0 -0 -0 -0 -0 -0 -0 -0 -0 -0 -0 -0 -0 -0 -0 -0 -0 -0 -0 -0 -0 -0 -0 -0 -0 -0 -0 -0 -0 -0 -0 -0 -0 -0 -0 -0 -0 -0 -0 -0 -0 -0 -0
-0 -0 -0 -0 -0 -0 -0 -0 -0 -0 -0 -0 -0 -0 -0 -0 -0 -0 -0 -0 -0 -0 -0 -0 -0 -0 -0 -0 -0 -0 -0 -0 -0 -0 -0 -0 -0 -0 -0 -0 -0 -0 -0 -0
-0 -0 -0 -0 -0 -0 -0 -0 -0 -0 -0 -0 -0 -0 -0 -0 -0 -0 -0 -0 -0 -0 -0 -0 -0 -0 -0 -0 -0 -0 -0 -0 -0 -0 -0 -0 -0 -0 -0 -0 -0 -0 -0 -0
Wind_Speed
24 32 42 43 41 48 48 48 54 53 40 43 47 53 61 50 48 50 47 43 42 40 36 29 26 24 21 19 17 16 16 15 15 15 14 14 13 12 11 9 7 6 7 6
29 40 39 41 40 45 47 49 56 54 40 41 45 53 58 50 50 49 50 46 45 43 40 35 31 27 25 22 19 17 16 16 17 17 16 16 14 14 12 11 10 8 6 6
31 30 24 38 40 42 47 50 55 55 45 42 44 55 62 55 50 49 50 50 48 45 43 37 32 30 28 26 23 21 19 18 17 17 16 16 14 15 14 13 12 11 7 7
32 37 42 42 43 37 47 42 49 51 48 57 40 64 60 56 51 46 46 46 46 44 41 38 37 35 32 29 24 22 20 19 19 18 18 18 18 18 17 15 13 12 10 9
27 29 30 34 42 33 43 35 40 44 47 50 47 50 67 44 54 52 46 42 41 37 35 34 33 31 30 27 23 20 18 17 18 19 19 19 19 18 17 15 15 14 12 11
35 35 33 34 31 29 39 38 35 35 40 53 55 45 64 56 57 52 44 39 36 34 32 30 29 27 25 23 21 18 16 15 15 17 18 19 19 18 17 16 15 15 14 13
35 35 34 31 36 38 32 33 36 39 41 51 37 40 47 29 23 36 41 37 32 27 26 25 25 24 22 19 18 16 14 14 15 16 17 18 18 18 17 15 15 14 15 14
36 37 26 27 28 28 29 32 35 41 40 42 30 42 44 37 43 43 31 25 23 25 25 24 23 21 18 17 15 13 12 12 12 13 15 15 16 17 16 15 15 15 14 13
33 33 26 28 27 27 31 33 32 38 34 37 33 39 46 49 42 34 27 25 20 15 16 17 16 16 17 16 15 14 12 12 12 12 13 15 15 16 15 14 15 15 14 13
31 38 31 30 27 27 29 24 29 31 38 40 37 38 37 29 28 30 28 25 22 18 15 14 14 15 15 15 14 12 11 11 11 11 12 12 12 13 13 13 13 13 13 13
30 33 32 28 28 30 29 30 26 26 29 34 38 33 26 29 30 31 24 18 18 17 16 15 15 14 14 14 14 14 13 12 12 12 12 12 13 13 13 14 13 13 12 11
28 31 36 36 29 27 29 33 30 31 29 32 35 42 25 27 29 25 18 18 16 14 14 15 15 14 14 15 16 16 16 16 16 15 15 15 15 15 15 14 12 11 10 9
24 26 32 30 27 25 29 32 30 31 32 36 34 30 19 23 23 17 14 15 16 15 14 14 14 15 17 18 19 19 20 21 20 19 18 17 16 15 14 13 12 11 9 8
27 29 33 39 35 30 31 29 29 30 33 35 41 41 35 25 21 17 15 14 14 15 14 14 15 16 18 20 21 22 23 24 23 21 19 17 16 15 14 13 11 11 9 8
26 31 32 36 36 35 34 33 30 33 36 35 34 34 28 28 29 22 18 18 17 16 16 18 19 19 20 22 23 24 25 25 23 19 18 17 15 13 13 11 10 9 9 8
28 34 36 36 31 31 37 36 35 35 37 42 42 44 34 35 26 23 24 23 22 21 21 21 21 21 22 23 25 26 26 26 24 19 17 15 13 12 11 10 9 8 7 7
33 33 35 40 34 37 37 29 27 24 25 31 36 31 32 31 30 26 26 24 22 24 23 23 23 24 25 26 27 27 26 26 21 17 15 13 11 11 10 9 8 7 7 7
33 34 33 40 35 41 27 23 18 16 21 24 27 30 33 32 22 21 24 24 24 24 26 27 27 27 27 28 28 27 26 22 19 17 15 13 11 10 9 9 9 9 9 7
27 29 33 35 36 36 29 25 26 26 25 24 26 28 30 27 17 20 21 22 23 24 25 26 27 27 27 27 28 26 24 21 19 18 16 14 13 11 10 10 10 10 8 7
22 22 27 28 35 38 27 28 27 23 29 24 24 25 25 18 21 23 22 20 20 22 24 25 26 26 26 27 26 23 21 19 19 19 17 15 13 11 10 10 10 9 7 6
26 26 29 32 37 33 28 26 19 31 28 20 21 21 20 17 16 17 18 19 19 20 21 22 22 23 25 25 22 20 19 18 19 18 15 13 11 10 10 10 9 7 6 5
25 25 27 28 33 36 22 22 25 18 19 21 20 19 19 17 17 18 17 18 19 19 20 21 21 21 22 22 20 19 17 18 17 15 14 12 11 11 10 8 7 5 4 4
25 23 25 25 27 18 18 17 13 14 18 21 22 21 20 20 20 20 20 20 20 20 20 20 20 19 20 20 19 18 18 17 15 13 13 12 11 10 9 7 6 4 3 2
25 22 26 25 24 21 20 21 17 16 18 18 20 21 22 23 23 23 22 21 21 22 22 21 20 19 19 19 19 18 17 16 14 13 12 11 10 9 8 8 7 5 4 3
25 20 25 28 25 21 21 22 21 20 18 19 20 22 23 23 24 25 25 25 24 24 23 23 22 21 20 20 19 18 18 16 15 14 13 13 12 11 9 10 8 7 7 4
25 27 28 30 22 24 22 20 21 21 23 23 25 26 25 26 27 28 27 27 27 27 26 25 24 23 23 22 20 20 19 18 16 14 13 13 12 11 9 8 7 7 5 4
Wind_Direction
279 270 263 262 262 265 269 268 265 266 273 270 267 266 263 269 266 266 268 270 271 270 272 271 272 273 272 269 266 261 256 250 248 249 249 258 260 266 276 280 280 286 301 304
281 269 270 273 270 266 266 267 267 269 273 271 271 267 266 268 266 266 266 268 269 269 269 269 270 270 268 268 266 262 256 248 245 249 251 266 260 271 274 278 278 278 284 297
278 279 288 274 271 268 266 265 266 268 273 272 275 270 264 267 269 268 267 267 267 268 268 268 266 267 269 269 267 260 253 247 243 246 250 266 266 276 273 271 270 273 273 286
284 283 277 274 272 271 270 270 269 269 270 266 274 268 267 266 267 267 268 268 268 267 267 267 267 269 269 270 270 263 256 249 245 242 245 249 256 263 269 266 266 269 270 269
290 290 290 279 273 275 272 279 273 270 270 271 266 269 262 272 265 266 268 269 269 269 269 268 268 269 271 273 270 265 258 250 244 240 245 249 256 265 273 271 265 266 266 264
286 283 287 282 285 284 274 274 278 277 272 265 264 266 264 266 266 268 270 272 269 268 268 268 270 271 274 275 272 266 257 251 245 243 244 248 252 260 266 267 266 265 268 263
295 285 282 281 279 277 279 270 271 272 266 267 276 264 265 282 280 276 270 268 269 270 268 267 269 273 276 275 272 268 260 257 255 250 249 250 254 257 261 262 266 267 269 262
292 289 290 284 273 285 275 261 263 270 271 274 272 266 266 277 275 270 280 276 269 269 267 269 271 274 277 276 274 273 267 265 260 256 256 257 258 262 265 264 270 273 271 267
292 289 293 290 286 278 277 268 266 271 279 277 275 277 273 265 273 276 272 265 275 275 272 270 270 276 280 279 278 277 274 274 270 265 264 264 263 264 267 269 272 276 276 276
290 287 289 290 286 281 274 287 269 266 269 269 274 278 273 277 283 271 267 263 264 266 268 273 277 283 285 284 284 285 285 282 280 275 274 272 269 268 272 274 273 274 278 280
290 282 283 289 282 275 272 270 275 280 269 273 273 277 290 279 279 276 268 260 261 262 265 271 280 282 286 288 286 287 288 289 288 284 283 280 279 278 278 278 277 278 281 282
294 285 278 277 286 283 277 270 270 272 273 268 273 264 301 295 287 286 273 257 265 270 272 273 275 280 285 287 289 290 289 288 287 286 286 285 285 283 282 281 281 278 280 281
303 287 279 279 283 284 274 271 274 273 274 268 269 265 307 312 301 297 282 269 266 269 275 278 280 282 282 284 286 289 290 289 287 285 285 287 287 286 285 281 282 283 280 280
305 290 281 273 277 283 277 277 272 270 270 270 264 266 275 294 300 296 286 278 275 272 274 283 285 285 285 285 287 292 291 289 287 287 288 289 288 289 288 288 286 287 284 282
303 286 289 285 282 278 276 274 277 269 268 268 274 271 276 283 277 278 284 279 275 277 281 280 280 284 284 287 289 292 293 291 290 290 291 292 294 293 293 292 293 294 294 295
295 283 288 281 289 286 273 275 276 273 270 267 267 262 280 275 283 278 274 274 275 276 280 282 277 281 285 290 292 293 294 293 291 290 291 292 294 295 296 299 301 303 305 306
287 285 283 273 281 284 273 276 282 281 285 276 269 276 280 279 276 276 277 276 276 275 278 280 279 282 288 292 293 295 298 295 293 292 292 292 295 296 300 309 312 313 312 312
281 279 279 274 279 269 279 291 292 292 293 292 286 286 280 276 285 286 284 277 275 278 278 278 279 282 286 289 292 297 300 300 294 291 291 292 293 298 304 311 311 308 310 316
276 275 275 272 270 271 274 285 281 279 287 301 294 294 292 282 277 291 294 286 280 280 281 280 280 283 287 294 297 298 299 299 294 290 289 289 292 297 302 305 307 309 316 321
288 277 272 273 269 267 276 285 284 281 272 304 303 306 306 291 275 283 296 293 289 287 285 284 286 289 296 299 302 301 298 297 293 290 288 290 295 298 301 303 308 317 327 334
283 282 274 272 269 274 284 290 291 266 270 295 306 309 312 306 301 303 308 306 302 301 299 298 296 296 301 303 303 301 300 297 293 293 293 296 302 304 305 309 317 327 343 6
284 281 278 276 271 269 294 289 276 278 286 290 295 306 307 314 314 314 316 313 309 308 309 311 309 309 308 307 304 304 305 300 298 298 297 300 304 305 309 317 326 350 24 41
279 281 283 281 281 286 300 297 297 291 289 288 291 297 299 304 312 312 311 309 310 312 310 315 316 316 318 317 317 311 307 305 302 303 302 303 307 311 316 321 329 341 358 16
276 285 280 284 291 285 284 290 293 292 293 297 298 297 299 298 301 302 309 311 312 308 306 309 312 316 318 317 315 314 310 309 309 308 308 307 307 314 317 320 319 320 320 320
275 279 278 281 286 291 288 289 283 285 296 297 300 299 298 299 298 301 301 302 303 305 306 306 304 304 310 314 313 311 311 311 310 310 306 303 304 306 311 315 317 315 316 319
272 277 274 278 285 286 289 289 287 282 284 291 294 293 298 299 297 298 298 300 301 299 300 302 303 302 300 302 305 306 306 306 306 307 308 305 303 305 309 313 324 333 345 1